Powrót do katalogu

STARLINK-33671

AktywnyŁącznośćVLEO
NORAD 63320·PAYLOAD·🇺🇸 United States

Wystrzelony Mar 18, 2025 z Cape Canaveral Space Force Station

Loading…

Następne Przeloty (najbliższe 24 godziny)

TLE

ŚwieżeSource: CelesTrak SupGP

Epoka: Sep 14, 2026, 22:53 UTC

1 63320C 25057P   26257.95395833  .00017298  00000+0  62626-3 0  2578
2 63320  43.0024  31.3524 0001883 285.0889 155.0923 15.27584102    18

Śledź STARLINK-33671 w czasie rzeczywistym z AllMySat

Download on the App Store